Regional Weather Roundup
Issued by NWS

Home | Current Version | Previous Version | Graphics & Text | Print | Product List | Glossary On
Versions: 1 2 3 4 5 6 7 8 9 10 11 12 13 14 15 16 17 18 19 20 21 22 23 24 25 26 27 28 29 30 31 32 33 34 35 36 37 38 39 40 41 42 43 44 45 46 47 48 49 50
000
ASUS45 KABQ 302210
RWRNM
NEW MEXICO REGIONAL WEATHER ROUNDUP
NATIONAL WEATHER SERVICE ALBUQUERQUE NM
400 PM MDT SUN AUG 30 2015

NOTE: "FAIR" MEANS FEW OR NO CLOUDS BELOW 12,000 FEET AGL WITH NO
       SIGNIFICANT WEATHER OR OBSTRUCTIONS TO VISION.

      THIS PRODUCT IS RELEASED AS TWO VERSIONS.  ONE VERSION NEAR
      THE TOP OF THE HOUR CONTAINING PRELIMINARY DATA FROM ALBUQUERQUE
      AND OTHER STATIONS.  A FINAL VERSION WITH ADDITIONAL DATA IS
      ISSUED ABOUT 10 MINUTES AFTER THE HOUR.

NMZ501-503-504-510>518-302300-
NORTHWEST PLATEAU/NORTHCENTRAL MOUNTAINS

CITY           SKY/WX    TMP DP  RH WIND       PRES   REMARKS
FARMINGTON     SUNNY     85  45  24 SW16G25   30.10F
LOS ALAMOS     PTSUNNY   76  38  25 SW10      30.27F
SANTA FE       PTSUNNY   83  45  26 W13       30.19F
TAOS           MOSUNNY   82  36  18 W10       30.24F
ANGEL FIRE     MOCLDY    73  44  35 N10       30.35S

$$
NMZ402-403-502-505>509-302300-
WESTCENTRAL MOUNTAINS/SOUTHWEST MOUNTAINS

CITY           SKY/WX    TMP DP  RH WIND       PRES   REMARKS
GALLUP         MOSUNNY   88  42  20 SW12G17   30.18F
GRANTS         MOSUNNY   86  41  20 W6        30.21F
SILVER CITY      N/A     84  50  30 CALM      30.17F

$$
NMZ407-409-411-412-302300-
SOUTHERN DESERTS

CITY           SKY/WX    TMP DP  RH WIND       PRES   REMARKS
DEMING         SUNNY     91  51  25 VRB3      30.06F
LAS CRUCES     MOSUNNY   91  44  19 SE8       30.08F
HOLLOMAN AFB   MOSUNNY   91  51  25 N3        30.03F
ALAMOGORDO     MOSUNNY   90  48  24 SE6       30.06F
T OR C         SUNNY     91  47  21 VRB5      30.08F

$$
NMZ519>523-302300-
CENTRAL VALLEYS/CENTRAL HIGHLANDS

CITY           SKY/WX    TMP DP  RH WIND       PRES   REMARKS
ALBUQUERQUE    MOSUNNY   90  41  18 CALM      30.12F
DOUBLE EAGLE   PTSUNNY   90  46  22 SE10      30.16F
MORIARTY ARPT  FAIR      87  40  19 W5        30.20F
CLINES CORNERS MOSUNNY   83  46  27 W13G22    30.23F
BELEN          FAIR      91  41  17 E7        30.10F
SOCORRO        FAIR      92  38  15 NE6       30.08F

$$
NMZ524>526-539-540-302300-
SOUTHCENTRAL MOUNTAINS

CITY           SKY/WX    TMP DP  RH WIND       PRES   REMARKS
RUIDOSO        MOSUNNY   77  46  33 MISG      30.28F

$$
NMZ527>531-302300-
NORTHEAST HIGHLANDS/NORTHEAST PLAINS

CITY           SKY/WX    TMP DP  RH WIND       PRES   REMARKS
LAS VEGAS      MOSUNNY   83  41  22 SW10G17   30.22F
RATON          MOSUNNY   89  37  16 W3        30.14F
CLAYTON        SUNNY     88  54  31 S14       30.08

$$
NMZ532>537-302300-
EASTCENTRAL PLAINS

CITY           SKY/WX    TMP DP  RH WIND       PRES   REMARKS
TUCUMCARI      SUNNY     92  51  24 S10       30.03F
CANNON AFB     SUNNY     88  44  21 VRB5      30.08F
CLOVIS AIRPORT SUNNY     88  46  23 S12       30.09F

$$
NMZ028-029-538-302300-
SOUTHEAST PLAINS

CITY           SKY/WX    TMP DP  RH WIND       PRES   REMARKS
ROSWELL        SUNNY     92  37  14 SE10      30.05F
ARTESIA        SUNNY     90  46  22 E9        30.05F
CARLSBAD       SUNNY     92  49  22 E10       30.03F
HOBBS          SUNNY     86  48  26 SE6       30.08


$$



USA.gov is the U.S. government's official web portal to all federal, state and local government web resources and services.